Waarnemingen

Advertentie
Mijn weer
Nice, Frankrijk (7690): temperatuur & dauwpunt: 14.11.2018 12:00:00 - 20.11.2018 12:00:00 (CET)Nice, Frankrijk (7690): temperatuur 5cm: 14.11.2018 12:00:00 - 20.11.2018 12:00:00 (CET)Nice, Frankrijk (7690): temperatuur -20cm & temperatuur -100cm: 14.11.2018 12:00:00 - 20.11.2018 12:00:00 (CET)Nice, Frankrijk (7690): windsnelheid & windstoten: 14.11.2018 12:00:00 - 20.11.2018 12:00:00 (CET)Nice, Frankrijk (7690): windrichting: 14.11.2018 12:00:00 - 20.11.2018 12:00:00 (CET)Nice, Frankrijk (7690): luchtdruk: 14.11.2018 12:00:00 - 20.11.2018 12:00:00 (CET)Nice, Frankrijk (7690): zicht: 14.11.2018 12:00:00 - 20.11.2018 12:00:00 (CET)Nice, Frankrijk (7690): Zonneschijnduur: 14.11.2018 12:00:00 - 20.11.2018 12:00:00 (CET)Nice, Frankrijk (7690): neerslag: 14.11.2018 12:00:00 - 20.11.2018 12:00:00 (CET)
Datum & Tijd tt [°C] td [°C] tt 5cm [°C] tt -20cm [°C] tt -100cm [°C] ff [km/u] ff [kn] fx [km/u] fx [kn] dd ppp [hPa] vv [km] sd [min] rr [mm]
20.11.2018 12:00:00 13,5 -2,1 15,0 15,9 18,2 16 9 29 16 NW 1003,8 40 60 0,0
20.11.2018 11:00:00 11,4 -2,1 11,2 16,0 18,0 22 12 33 18 NNW 1003,7 40 60 0,0
20.11.2018 10:00:00 9,7 -2,6 9,4 16,0 18,1 22 12 31 17 NNW 1003,0 40 51 0,0
20.11.2018 09:00:00 8,5 -3,1 7,1 16,0 18,1 14 8 22 12 N 1002,6 40 11 0,0
20.11.2018 08:00:00 7,7 -3,5 6,3 16,0 18,4 14 8 25 13 NNW 1002,2 40 5 0,0
20.11.2018 07:00:00 7,2 -3,4 5,6 16,0 18,4 18 10 24 13 NNW 1001,3 30 0 0,0
20.11.2018 06:00:00 7,6 -3,6 5,3 16,1 18,2 16 9 24 13 N 1000,8 20 0 0,0
20.11.2018 05:00:00 7,1 -3,2 5,1 16,1 18,5 16 8 22 12 N 1000,5 20 0 0,0
20.11.2018 04:00:00 6,6 -2,6 5,1 16,1 18,0 14 8 22 12 NNW 1000,7 20 0 0,0
20.11.2018 03:00:00 6,8 -2,1 5,5 16,1 18,3 11 6 29 16 NNW 1000,8 20 0 0,0
20.11.2018 02:00:00 9,2 -4,1 6,1 16,1 18,3 17 9 22 12 NNO 1001,1 20 0 0,0
20.11.2018 01:00:00 7,6 -0,6 6,7 16,2 18,3 9 5 23 13 NNW 1001,4 20 0 0,0
20.11.2018 00:00:00 7,4 -0,3 5,5 16,2 18,3 15 8 22 12 NNW 1002,2 20 0 0,0
19.11.2018 23:00:00 6,7 0,1 5,2 16,2 18,4 14 8 17 9 NNW 1002,2 20 0 0,0
19.11.2018 22:00:00 7,0 0,6 5,7 16,2 18,7 11 6 19 10 NNW 1002,0 20 0 0,0
19.11.2018 21:00:00 7,1 0,7 6,1 16,3 18,3 14 8 27 14 NNW 1002,2 20 0 0,0
19.11.2018 20:00:00 7,8 0,7 6,2 16,3 18,4 16 9 23 12 NNO 1002,2 15 0 0,0
19.11.2018 19:00:00 8,6 0,8 7,1 16,3 18,5 11 6 35 19 N 1002,7 15 0 0,0
19.11.2018 18:00:00 12,2 1,2 11,3 16,4 18,4 30 16 48 26 ONO 1002,9 20 0 0,0
19.11.2018 17:00:00 12,4 2,3 11,5 16,4 18,5 36 19 49 26 O 1002,9 20 38 0,0
19.11.2018 16:00:00 12,7 2,0 13,7 16,4 18,4 39 21 53 29 O 1003,2 20 60 0,0
19.11.2018 15:00:00 12,7 2,5 12,4 16,4 18,4 38 20 52 28 O 1003,6 20 36 0,0
19.11.2018 14:00:00 12,3 1,9 12,6 16,5 18,4 35 19 49 26 O 1004,3 20 28 0,0
19.11.2018 13:00:00 13,0 1,6 12,2 16,5 18,4 29 16 40 22 O 1005,1 20 18 0,0
19.11.2018 12:00:00 12,2 1,2 11,1 16,5 18,6 26 14 35 19 O 1006,0 20 0 0,0
19.11.2018 11:00:00 10,0 0,0 9,5 16,6 18,5 19 10 29 15 ONO 1006,9 25 27 0,0
19.11.2018 10:00:00 8,3 -0,7 6,9 16,6 18,6 19 10 27 15 NNW 1007,2 40 40 0,0
19.11.2018 09:00:00 6,5 -1,2 5,2 16,6 18,4 19 11 29 15 NNW 1007,4 50 17 0,0
19.11.2018 08:00:00 5,7 -1,5 4,8 16,6 18,5 17 9 26 14 NNW 1007,4 50 0 0,0
19.11.2018 07:00:00 5,7 -1,2 4,9 16,6 18,6 21 11 27 15 N 1007,5 30 0 0,0
19.11.2018 06:00:00 5,7 -1,0 4,8 16,7 18,5 16 9 26 14 NNW 1008,4 30 0 0,0
19.11.2018 05:00:00 5,7 -0,8 4,9 16,7 18,5 17 9 25 14 NNW 1009,1 60 0 0,0
19.11.2018 04:00:00 5,9 -0,6 4,9 16,7 18,5 16 9 28 15 NNW 1009,9 30 0 0,0
19.11.2018 03:00:00 6,3 -0,5 5,5 16,8 18,7 21 12 29 16 NNW 1010,5 30 0 0,0
19.11.2018 02:00:00 6,7 -0,5 5,9 16,8 18,6 18 10 23 12 NNW 1011,0 30 0 0,0
19.11.2018 01:00:00 7,0 -0,2 6,0 16,8 18,5 16 9 25 13 NNW 1011,4 30 0 0,0
19.11.2018 00:00:00 7,4 -0,1 6,1 16,8 18,7 21 11 29 16 NNW 1011,7 30 0 0,0
18.11.2018 23:00:00 7,3 0,7 6,1 16,8 18,6 12 7 27 14 NNW 1012,3 30 0 0,0
18.11.2018 22:00:00 8,2 0,7 7,1 16,9 18,8 19 11 24 13 NNW 1012,4 30 0 0,0
18.11.2018 21:00:00 8,5 1,9 7,4 16,9 18,6 14 8 19 11 NNW 1013,2 30 0 0,0
18.11.2018 20:00:00 9,0 2,8 7,6 16,9 19,3 10 5 17 9 NW 1013,4 30 0 0,0
18.11.2018 19:00:00 10,6 2,7 9,1 16,9 18,4 11 6 41 22 N 1013,7 30 0 0,0
18.11.2018 18:00:00 14,3 2,2 13,2 16,9 18,5 33 18 49 26 O 1013,5 30 0 0,0
18.11.2018 17:00:00 14,5 4,2 13,5 17,0 18,6 35 19 48 26 O 1013,4 40 39 0,0
18.11.2018 16:00:00 14,8 3,3 15,3 17,0 18,6 34 19 50 27 O 1013,7 40 60 0,0
18.11.2018 15:00:00 15,1 4,2 16,3 17,0 18,8 40 21 50 27 O 1014,3 40 60 0,0
18.11.2018 14:00:00 15,3 3,4 17,0 17,1 18,6 35 19 45 24 O 1015,0 40 60 0,0
18.11.2018 13:00:00 15,3 1,8 16,8 17,1 18,8 28 15 39 21 O 1015,7 40 60 0,0
18.11.2018 12:00:00 15,2 1,7 16,0 17,1 18,6 22 12 34 18 O 1016,6 40 60 0,0
18.11.2018 11:00:00 12,1 -0,1 12,5 17,1 18,6 14 7 27 15 NW 1017,7 40 60 0,0
18.11.2018 10:00:00 9,5 -0,4 10,1 17,1 18,7 21 11 29 15 NNW 1017,9 40 60 0,0
18.11.2018 09:00:00 7,6 -0,9 6,8 17,2 18,7 21 11 30 16 NNW 1018,1 40 60 0,0
18.11.2018 08:00:00 6,4 -1,3 5,5 17,2 18,7 21 11 32 18 NNW 1017,9 30 8 0,0
18.11.2018 07:00:00 6,2 -1,2 5,5 17,2 18,7 22 12 32 17 NNW 1017,7 30 0 0,0
18.11.2018 06:00:00 6,3 -1,1 5,7 17,2 18,7 23 13 32 17 NNW 1017,6 30 0 0,0
18.11.2018 05:00:00 6,7 -1,2 6,0 17,2 18,7 22 12 29 16 NNW 1017,9 30 0 0,0
18.11.2018 04:00:00 7,0 -1,2 6,4 17,3 18,8 22 12 27 15 NNW 1018,0 30 0 0,0
18.11.2018 03:00:00 7,8 -1,2 7,0 17,3 18,8 19 10 26 14 NNW 1018,9 30 0 0,0
18.11.2018 02:00:00 9,1 -1,3 8,6 17,3 18,8 16 9 34 18 N 1019,3 40 0 0,0
18.11.2018 01:00:00 11,6 -1,9 10,7 17,3 19,1 24 13 47 25 NNO 1019,5 40 0 0,0
18.11.2018 00:00:00 13,9 -3,0 12,7 17,3 18,7 29 16 51 28 NO 1019,4 40 0 -
17.11.2018 23:00:00 14,0 -2,0 - - - 37 20 - - NO - 10 - -
17.11.2018 22:00:00 12,4 -3,4 10,8 17,4 18,7 23 13 38 20 NNO 1019,9 40 0 0,0
17.11.2018 21:00:00 12,6 -3,3 11,1 17,4 18,8 26 14 49 27 NNO 1019,5 40 0 0,0
17.11.2018 20:00:00 12,7 -3,2 11,3 17,4 18,9 31 17 50 27 NNO 1019,3 40 0 0,0
17.11.2018 19:00:00 12,5 -3,0 11,1 17,4 18,9 27 15 40 22 NNO 1019,4 40 0 0,0
17.11.2018 18:00:00 14,6 -0,3 13,4 17,4 18,7 26 14 50 27 ONO 1019,3 40 0 0,0
17.11.2018 17:00:00 15,1 1,2 14,1 17,4 18,8 39 21 59 32 O 1018,7 30 32 0,0
17.11.2018 16:00:00 15,9 1,2 16,3 17,4 18,7 31 17 54 29 ONO 1018,1 30 60 0,0
17.11.2018 15:00:00 15,9 1,6 17,1 17,4 18,8 40 22 54 29 O 1018,2 30 60 0,0
17.11.2018 14:00:00 16,0 0,1 17,3 17,4 18,7 35 19 63 34 O 1018,6 30 60 0,0
17.11.2018 13:00:00 15,7 2,8 15,5 17,5 18,8 49 26 64 35 O 1018,9 30 52 0,0
17.11.2018 12:00:00 15,9 1,9 15,4 17,5 18,8 42 23 63 34 O 1019,9 30 21 0,0
17.11.2018 11:00:00 15,1 3,2 15,5 17,5 18,8 44 24 58 31 O 1020,5 30 35 0,0
17.11.2018 10:00:00 14,7 4,1 11,7 17,5 18,8 25 13 41 22 ONO 1021,0 30 56 0,0
17.11.2018 09:00:00 11,6 5,0 11,3 17,5 18,8 16 9 27 14 NO 1021,3 30 47 0,0
17.11.2018 08:00:00 10,0 5,6 8,3 17,5 18,8 14 8 29 16 NO 1021,1 30 9 0,0
17.11.2018 07:00:00 11,8 3,5 8,5 17,5 18,7 18 10 44 24 NO 1020,8 15 0 0,0
17.11.2018 06:00:00 10,1 5,5 8,7 17,5 18,8 19 11 50 27 NNO 1020,9 15 0 0,0
17.11.2018 05:00:00 9,9 7,1 8,7 17,5 18,8 11 6 19 10 NW 1021,3 15 0 0,0
17.11.2018 04:00:00 10,5 7,6 9,4 17,5 18,8 9 5 26 14 NNW 1021,5 15 0 0,0
17.11.2018 03:00:00 13,2 5,6 12,2 17,5 18,9 19 10 52 28 NNO 1021,9 15 0 0,0
17.11.2018 02:00:00 14,7 7,0 13,9 17,5 18,8 40 22 61 33 O 1021,6 15 0 0,0
17.11.2018 01:00:00 15,1 8,3 14,3 17,5 18,7 43 23 60 33 O 1021,8 15 0 0,0
17.11.2018 00:00:00 15,4 7,4 14,1 17,5 18,8 45 25 60 33 O 1021,8 15 0 0,0
16.11.2018 23:00:00 15,3 7,6 14,3 17,5 19,0 9 5 40 22 NNO 1021,9 15 0 0,0
16.11.2018 22:00:00 16,1 8,3 15,6 17,5 18,8 38 21 55 30 O 1021,8 15 0 0,0
16.11.2018 21:00:00 16,5 8,9 15,9 17,5 19,0 39 21 56 30 O 1021,6 15 0 0,0
16.11.2018 20:00:00 16,4 8,6 15,9 17,5 18,9 48 26 61 33 O 1021,5 15 0 0,0
16.11.2018 19:00:00 17,0 9,9 16,3 17,5 19,0 47 26 57 31 O 1021,5 15 0 0,0
16.11.2018 18:00:00 17,3 10,9 16,8 17,5 18,9 34 18 48 26 OZO 1021,5 15 0 0,0
16.11.2018 17:00:00 17,7 9,6 16,5 17,6 18,9 14 7 22 12 ZZO 1021,4 20 25 0,0
16.11.2018 16:00:00 17,8 10,4 19,0 17,6 18,9 11 6 16 9 W 1021,4 15 60 0,0
16.11.2018 15:00:00 18,2 9,8 19,6 17,6 18,8 14 8 20 11 ZW 1021,5 15 55 0,0
16.11.2018 14:00:00 18,4 9,7 21,5 17,6 18,8 12 6 23 12 ZW 1021,8 30 60 0,0
16.11.2018 13:00:00 18,5 10,3 21,8 17,6 19,0 9 5 13 7 Z 1022,1 30 60 0,0
16.11.2018 12:00:00 17,5 10,1 21,8 17,6 18,8 8 5 13 7 ZO 1022,7 30 60 0,0
16.11.2018 11:00:00 17,3 9,7 19,4 17,6 18,9 3 2 13 7 NW 1023,1 30 60 0,0
16.11.2018 10:00:00 15,8 9,5 16,9 17,6 18,9 9 5 16 9 NNW 1023,1 30 60 0,0
16.11.2018 09:00:00 14,2 8,8 13,7 17,7 18,8 11 6 22 12 NNW 1023,1 30 40 0,0
16.11.2018 08:00:00 13,6 8,8 12,8 17,7 18,8 14 7 20 11 NNW 1022,8 30 10 0,0
16.11.2018 07:00:00 13,4 9,1 11,7 17,6 19,0 14 8 19 11 NNW 1022,5 20 0 0,0
16.11.2018 06:00:00 12,6 8,9 11,6 17,7 18,9 14 7 19 10 NNW 1022,2 20 0 0,0
16.11.2018 05:00:00 12,5 8,6 11,6 17,7 18,9 16 9 23 13 NNW 1022,1 20 0 0,0
16.11.2018 04:00:00 12,3 8,8 11,5 17,7 18,5 15 8 19 10 NNW 1022,0 20 0 0,0
16.11.2018 03:00:00 12,3 8,9 11,4 17,7 18,9 15 8 20 11 NNW 1022,1 20 0 0,0
16.11.2018 02:00:00 12,3 9,1 11,5 17,7 18,9 13 7 26 14 NNW 1022,3 20 0 0,0
16.11.2018 01:00:00 12,4 9,4 11,6 17,7 18,8 14 8 22 12 NNW 1022,6 20 0 0,0
16.11.2018 00:00:00 12,8 9,8 11,9 17,7 18,9 14 8 21 11 NNW 1022,5 20 0 0,0
15.11.2018 23:00:00 12,9 10,1 12,3 17,7 18,7 17 9 23 13 NNW 1022,1 20 0 0,0
15.11.2018 22:00:00 13,5 10,3 12,9 17,7 18,9 18 10 22 12 NNW 1021,9 20 0 0,0
15.11.2018 21:00:00 13,7 10,7 12,9 17,7 18,9 16 8 20 11 NNW 1021,8 15 0 0,0
15.11.2018 20:00:00 14,1 11,3 13,4 17,7 19,1 14 7 16 8 NW 1021,8 15 0 0,0
15.11.2018 19:00:00 14,7 11,7 13,8 17,7 18,9 12 6 15 8 NW 1022,1 15 0 0,0
15.11.2018 18:00:00 16,7 11,6 14,8 17,7 18,9 7 4 11 6 O 1022,1 20 0 0,0
15.11.2018 17:00:00 17,2 12,3 15,6 17,7 19,0 7 4 10 5 OZO 1022,2 30 42 0,0
15.11.2018 16:00:00 17,8 12,5 19,2 17,7 18,9 8 4 14 8 OZO 1022,5 30 60 0,0
15.11.2018 15:00:00 18,2 12,4 19,7 17,8 19,0 10 5 17 9 OZO 1022,9 30 60 0,0
15.11.2018 14:00:00 18,0 12,0 18,9 17,7 18,9 15 8 22 12 OZO 1023,2 30 39 0,0
15.11.2018 13:00:00 18,3 11,4 18,2 17,8 18,9 17 9 27 15 O 1023,8 30 35 0,0
15.11.2018 12:00:00 18,0 11,5 18,3 17,8 18,9 20 11 26 14 O 1024,3 30 5 0,0
15.11.2018 11:00:00 17,2 10,6 18,2 17,8 19,0 5 3 16 9 N 1024,6 30 42 0,0
15.11.2018 10:00:00 16,0 9,6 14,2 17,8 19,0 10 6 22 12 NNW 1024,5 20 37 0,0
15.11.2018 09:00:00 13,9 8,9 13,3 17,8 18,9 16 9 21 11 NNW 1024,3 20 54 0,0
15.11.2018 08:00:00 13,4 8,9 12,0 17,8 19,0 14 8 25 13 NNW 1024,1 20 12 0,0
15.11.2018 07:00:00 12,8 9,1 11,6 17,8 18,9 19 10 24 13 NNW 1023,7 20 0 0,0
15.11.2018 06:00:00 12,6 9,2 11,7 17,8 19,1 13 7 24 13 NNW 1023,8 20 0 0,0
15.11.2018 05:00:00 13,2 9,6 12,2 17,8 18,8 21 11 24 13 NNW 1023,8 20 0 0,0
15.11.2018 04:00:00 13,2 10,0 12,2 17,8 18,9 12 6 16 9 NNW 1024,1 20 0 0,0
15.11.2018 03:00:00 13,4 10,6 12,5 17,7 19,0 13 7 17 9 NNW 1024,5 20 0 0,0
15.11.2018 02:00:00 13,6 10,8 12,5 17,8 19,0 16 9 21 11 NNW 1024,8 20 0 0,0
15.11.2018 01:00:00 13,6 10,9 12,7 17,8 18,9 12 6 18 10 NNW 1024,9 20 0 0,0
15.11.2018 00:00:00 14,1 11,1 13,3 17,8 18,9 15 8 22 12 NNW 1025,1 20 0 0,0
14.11.2018 23:00:00 14,4 11,4 13,6 17,8 18,9 18 10 23 12 NNW 1025,3 20 0 0,0
14.11.2018 22:00:00 14,3 11,6 13,6 17,8 18,8 10 6 19 11 NNW 1025,6 20 0 0,0
14.11.2018 21:00:00 14,6 11,9 13,9 17,8 18,9 16 8 20 11 NNW 1025,6 20 0 0,0
14.11.2018 20:00:00 15,0 12,5 14,3 17,8 18,9 13 7 18 10 NNW 1025,7 20 0 0,0
14.11.2018 19:00:00 15,6 12,9 14,3 17,8 18,9 13 7 16 9 NW 1025,6 20 0 0,0
14.11.2018 18:00:00 17,1 13,0 14,3 17,8 19,0 4 2 8 4 N 1025,3 20 0 0,0
14.11.2018 17:00:00 18,1 13,2 16,4 17,8 18,8 4 2 5 3 NNO 1025,5 20 31 0,0
14.11.2018 16:00:00 19,2 13,6 21,7 17,8 18,4 0 0 5 3 N 1025,8 20 60 0,0
14.11.2018 15:00:00 20,7 13,6 25,2 17,8 18,9 2 1 6 3 Z 1026,1 20 60 0,0
14.11.2018 14:00:00 19,9 12,9 22,6 17,8 19,0 3 1 8 4 O 1026,5 20 47 0,0
14.11.2018 13:00:00 19,4 12,4 19,4 17,8 18,9 4 2 10 5 NW 1027,0 20 12 0,0
14.11.2018 12:00:00 18,2 10,8 18,8 17,8 19,0 9 5 15 8 NW 1027,6 25 6 0,0

tt = temperatuur
td = dauwpunt
tt 5cm = temperatuur 5cm
tt -20cm = temperatuur -20cm
tt -100cm = temperatuur -100cm
ff = windsnelheid
fx = windstoten
dd = windrichting
ppp = luchtdruk
vv = zicht
sd = Zonneschijnduur
rr = neerslag

Weerstations in de omgeving